Regional Weather Roundup
Issued by NWS

Home | Current Version | Previous Version | Text Only | Print | Product List | Glossary On
Versions: 1 2 3 4 5 6 7 8 9 10 11 12 13 14 15 16 17 18 19 20 21 22 23 24 25 26 27 28 29 30 31 32 33 34 35 36 37 38 39 40 41 42 43 44 45 46 47 48 49 50
000
ASUS44 KJAN 280110
RWRMS

MISSISSIPPI HOURLY WEATHER ROUNDUP
NATIONAL WEATHER SERVICE JACKSON MS
800 PM CDT MON MAR 27 2017

NOTE: "FAIR: INDICATES FEW OR NO CLOUDS BELOW 12,000 FEET WITH NO
SIGNIFICANT WEATHER AND/OR OBSTRUCTIONS TO VISIBILITY.

MSZ001>002-007>008-010>013-018>021-025>028-034>036-280200-
NORTHWEST MISSISSIPPI

CITY           SKY/WX    TMP DP  RH WIND       PRES   REMARKS
CLARKSDALE     CLOUDY    77  64  65 SW5       29.81R
CLEVELAND      FAIR      74  67  78 S8        29.82R
GREENWOOD      CLEAR     72  64  76 SW6       29.84R
GREENVILLE     PTCLDY    72  65  78 S9        29.82R
OXFORD         FAIR      73  63  68 SW10      29.84R
WINONA         FAIR      71  63  75 CALM      29.85R
$$

MSZ003>006-009-014>017-022>024-029>033-037>039-280200-
NORTHEAST MISSISSIPPI

CITY           SKY/WX    TMP DP  RH WIND       PRES   REMARKS
COLUMBUS AFB   NOT AVBL
GOLDN TRIANGLE CLEAR     72  57  60 S12       29.83S
STARKVILLE     FAIR      70  61  73 S8        29.88R
TUPELO         CLEAR     74  61  63 S9        29.82R
$$

MSZ040-058-280200-
CENTRAL MISSISSIPPI

CITY           SKY/WX    TMP DP  RH WIND       PRES   REMARKS
JACKSON INTL   TSTM      68  64  87 CALM      29.88R
JACKSON HAWKNS CLOUDY    65  62  90 NE5       29.89F
MERIDIAN KEY   CLOUDY    68  67  96 S7        29.92R
MERIDIAN NAS   MOCLDY    68  61  78 SE3       29.92R
RAYMOND          N/A    N/A N/A N/A MISG        N/A
VICKSBURG VKS  MOCLDY    66  64  94 MISG      29.85F
$$

MSZ059>079-280200-
SOUTH MISSISSIPPI

CITY           SKY/WX    TMP DP  RH WIND       PRES   REMARKS
BROOKHAVEN     DRIZZLE   75  61  60 S8        29.91S
COLUMBIA       FAIR      75 -35   1 S7        29.94R
HATTIESBURG    CLOUDY    73  65  75 S13       29.93R
MCCOMB         PTCLDY    73  60  63 S7        29.91R
NATCHEZ        NOT AVBL
PINE BELT      CLOUDY    70  66  88 SE14G20   29.91S THUNDER
$$

MSZ080>082-280200-
COASTAL MISSISSIPPI

CITY           SKY/WX    TMP DP  RH WIND       PRES   REMARKS
BAY ST LOUIS   PTCLDY    72  64  78 S7        29.95R
BILOXI         CLOUDY    73  70  88 S9G20     29.96R
PASCAGOULA     MOCLDY    71  66  84 S7        29.96F
GULFPORT       CLOUDY    74  70  87 S9        29.95S
$$

LAZ007>009-015>016-023>026-280200-
NORTHEAST LOUISIANA

CITY           SKY/WX    TMP DP  RH WIND       PRES   REMARKS
BASTROP        CLOUDY    76  68  76 S5        29.84R
TALLULAH/VBURG PTCLDY    66  64  93 CALM      29.87S
VIDALIA        FAIR      75  64  68 S13       29.87R
$$



USA.gov is the U.S. government's official web portal to all federal, state and local government web resources and services.